User: anonymous   Login
Location: Unspecified
(0.0000°N, 0.0000°E)
Time: 11:20:18
(UTC+00:00)
Language:

FALCONSAT 3 - Orbit

View from above orbital plane
View from above orbital plane
View from above satellite
View from above satellite

Ground track
Ground track

The orbit data is extracted from the following two-line orbital elements,

1 30776U 07006E   19347.85220465 +.00002309 +00000-0 +63849-4 0  9990
2 30776 035.4359 033.0741 0003353 280.6141 079.4209 15.36917563708101
Epoch (UTC): 13 December 2019 20:27:10
Eccentricity: 0.0003353
inclination: 35.4359°
perigee height: 453 km
apogee height: 457 km
right ascension of ascending node: 33.0741°
argument of perigee: 280.6141°
revolutions per day: 15.36917563
mean anomaly at epoch: 79.4209°
orbit number at epoch: 70810

The dashed part of the orbit path shows where the satellite is in the earth's shadow,  

DLR